Lafayette, IN

6:04 AM EDT on October 20, 2017 (GMT -0400)
Purdue Univ

Weather History for KLAF - January, 2013

Change the Weather History Date:

Sunday, January 13, 2013

  Actual Average Record
Temperature  
Mean Temperature 28 °F 26 °F  
Max Temperature 39 °F 34 °F 63 °F (2005)
Min Temperature 17 °F 19 °F -9 °F (1977)
Degree Days  
Heating Degree Days 37 39  
Month to date heating degree days 459 503  
Since 1 July heating degree days 2654 2678  
Cooling Degree Days 0 0  
Month to date cooling degree days 0 0  
Year to date cooling degree days 0 0  
Moisture  
Dew Point 27 °F    
Average Humidity 89    
Maximum Humidity 100    
Minimum Humidity 77    
Precipitation  
Precipitation 0.64 in 0.06 in 1.54 in (1950)
Month to date precipitation 2.06 0.83  
Year to date precipitation 2.06 0.83  
Sea Level Pressure  
Sea Level Pressure 29.99 in    
Wind  
Wind Speed 11 mph (NW)    
Max Wind Speed 30 mph    
Max Gust Speed 41 mph    
Visibility 6 miles    
Events Rain , Snow    
T = Trace of Precipitation, MM = Missing Value Source: NWS Daily Summary

Daily Weather History Graph

Daily Weather History Graph

Search for Another Location

Airport or City:

Trip Planner

Search our weather history database for the weather conditions in past years. The results will help you decide how hot, cold, wet, or windy it might be!

Date:

Astronomy

Jan. 13, 2013 Rise Set
Actual Time 8:09 AM EST 5:44 PM EST
Civil Twilight 7:39 AM EST 6:14 PM EST
Nautical Twilight 7:05 AM EST 6:47 PM EST
Astronomical Twilight 6:33 AM EST 7:20 PM EST
Moon 9:07 AM EST (1/13) 8:22 PM EST (1/13)
Length of Visible Light 10h 34m
Length of Day
9h 34m
Waxing Crescent, 5% of the Moon is Illuminated
Jan 13
Waxing Crescent
Jan 18
First Quarter
Jan 26
Full
Feb 3
Last Quarter
Feb 10
New

Hourly Weather History & Observations

Time (EST) Temp. Windchill Dew Point Humidity Pressure Visibility Wind Dir Wind Speed Gust Speed Precip Events Conditions
12:24 AM 37.4 °F 27.8 °F 35.6 °F 93% 29.81 in 5.0 mi North 17.3 mph 23.0 mph 0.11 in Rain Rain
12:44 AM 37.4 °F 28.2 °F 35.6 °F 93% 29.82 in 6.0 mi North 16.1 mph 35.7 mph 0.16 in Rain Rain
12:54 AM 37.9 °F 28.2 °F 36.0 °F 93% 29.78 in 4.0 mi North 18.4 mph 41.4 mph 0.23 in Rain Heavy Rain
1:05 AM 37.4 °F 28.9 °F 35.6 °F 93% 29.79 in 4.0 mi NNE 13.8 mph 28.8 mph 0.06 in Rain Rain
1:33 AM 35.6 °F 28.0 °F 35.6 °F 100% 29.78 in 6.0 mi North 10.4 mph 20.7 mph 0.12 in Rain Rain
1:54 AM 36.0 °F 28.5 °F 36.0 °F 100% 29.80 in 7.0 mi North 10.4 mph 20.7 mph 0.15 in Rain Light Rain
2:24 AM 35.6 °F 27.5 °F 35.6 °F 100% 29.82 in 5.0 mi NNW 11.5 mph - 0.06 in Rain Rain
2:54 AM 35.1 °F 27.9 °F - N/A% 29.84 in 8.0 mi NNW 9.2 mph 21.9 mph 0.07 in Rain Light Rain
3:13 AM 35.6 °F 25.9 °F - N/A% 29.84 in 10.0 mi North 16.1 mph 24.2 mph 0.00 in   Overcast
3:54 AM 35.1 °F 27.9 °F - N/A% 29.86 in 10.0 mi North 9.2 mph - 0.00 in   Overcast
4:54 AM 35.1 °F 28.6 °F - N/A% 29.87 in 10.0 mi North 8.1 mph - N/A   Overcast
5:54 AM 35.1 °F 31.0 °F - N/A% 29.88 in 10.0 mi NNW 4.6 mph - N/A   Overcast
6:46 AM 35.6 °F 29.2 °F - N/A% 29.92 in 10.0 mi NNW 8.1 mph - N/A   Overcast
6:54 AM 35.1 °F 29.3 °F - N/A% 29.94 in 10.0 mi NW 6.9 mph - N/A   Overcast
7:54 AM 34.0 °F 28.0 °F - N/A% 29.94 in 7.0 mi NNW 6.9 mph - N/A   Overcast
8:54 AM 33.1 °F 25.5 °F 33.1 °F 100% 29.96 in 10.0 mi WNW 9.2 mph - N/A   Overcast
9:54 AM 32.0 °F 23.0 °F 32.0 °F 100% 29.98 in 6.0 mi NNW 11.5 mph - N/A   Overcast
10:25 AM 30.2 °F 23.4 °F 30.2 °F 100% 29.96 in 4.0 mi WNW 6.9 mph - N/A   Overcast
10:54 AM 30.9 °F 22.8 °F 30.0 °F 96% 30.04 in 6.0 mi WNW 9.2 mph - N/A   Overcast
11:06 AM 30.2 °F 19.3 °F 30.2 °F 100% 29.99 in 4.0 mi NNW 15.0 mph 19.6 mph N/A   Overcast
11:17 AM 30.2 °F 19.8 °F 30.2 °F 100% 30.00 in 2.0 mi NW 13.8 mph - 0.00 in   Overcast
11:54 AM 30.0 °F 22.4 °F 30.0 °F 100% 29.98 in 2.5 mi NNW 8.1 mph - 0.00 in   Overcast
12:25 PM 30.2 °F 22.6 °F 28.4 °F 93% 29.93 in 2.5 mi North 8.1 mph - N/A   Overcast
12:52 PM 30.2 °F 21.3 °F 28.4 °F 93% 29.91 in 2.0 mi North 10.4 mph - 0.01 in Rain Light Freezing Rain
12:54 PM 30.0 °F 21.1 °F 28.9 °F 96% 29.93 in 1.8 mi North 10.4 mph - 0.01 in Rain Light Freezing Rain
1:17 PM 30.2 °F 20.8 °F 28.4 °F 93% 29.96 in 1.8 mi NW 11.5 mph - 0.04 in Rain Light Freezing Rain
1:39 PM 30.2 °F 19.3 °F 28.4 °F 93% 29.97 in 3.0 mi WNW 15.0 mph - 0.07 in Rain Light Freezing Rain
1:45 PM 30.2 °F 19.8 °F 28.4 °F 93% 29.98 in 2.0 mi NW 13.8 mph - 0.08 in Rain Light Freezing Rain
1:52 PM 30.2 °F 20.8 °F 28.4 °F 93% 29.98 in 2.0 mi NW 11.5 mph - 0.08 in Rain Light Freezing Rain
1:54 PM 30.0 °F 20.0 °F 28.9 °F 96% 29.99 in 2.0 mi NW 12.7 mph - 0.08 in Rain Light Freezing Rain
1:59 PM 30.2 °F 19.8 °F 28.4 °F 93% 29.97 in 3.0 mi NW 13.8 mph 23.0 mph 0.00 in Rain Light Freezing Rain
2:54 PM 28.9 °F 21.9 °F 28.0 °F 96% 30.01 in 8.0 mi NNW 6.9 mph - 0.06 in Rain Light Freezing Rain
3:00 PM 28.4 °F 18.0 °F 28.4 °F 100% 30.00 in 8.0 mi NNW 12.7 mph - 0.00 in   Overcast
3:18 PM 28.4 °F 20.4 °F 28.4 °F 100% 30.01 in 9.0 mi NNW 8.1 mph 18.4 mph 0.01 in Rain Light Freezing Rain
3:54 PM 28.9 °F 20.4 °F 27.0 °F 92% 30.01 in 8.0 mi NNW 9.2 mph - 0.03 in Rain Light Freezing Rain
4:20 PM 28.4 °F 19.7 °F 26.6 °F 93% 30.02 in 5.0 mi NW 9.2 mph - 0.01 in   Overcast
4:30 PM 28.4 °F 18.5 °F 26.6 °F 93% 30.03 in 6.0 mi NW 11.5 mph - 0.01 in   Overcast
4:38 PM 28.4 °F 19.1 °F 26.6 °F 93% 30.03 in 10.0 mi NW 10.4 mph - 0.01 in   Overcast
4:54 PM 28.0 °F 19.3 °F 26.1 °F 92% 30.06 in 7.0 mi NW 9.2 mph - 0.02 in Snow Light Snow
5:22 PM 26.6 °F 16.8 °F 24.8 °F 93% 30.06 in 2.0 mi WNW 10.4 mph - 0.00 in Snow Light Snow
5:33 PM 26.6 °F 17.5 °F 24.8 °F 93% 30.07 in 3.0 mi WNW 9.2 mph - 0.00 in Snow Light Snow
5:39 PM 26.6 °F 14.7 °F 24.8 °F 93% 30.08 in 7.0 mi WNW 15.0 mph 20.7 mph 0.00 in   Overcast
5:51 PM 26.6 °F 14.7 °F 24.8 °F 93% 30.08 in 10.0 mi WNW 15.0 mph - 0.00 in   Overcast
5:54 PM 25.0 °F 12.6 °F 23.0 °F 92% 30.11 in 10.0 mi NW 15.0 mph 20.7 mph 0.00 in   Overcast
6:54 PM 24.1 °F 11.5 °F 19.9 °F 84% 30.14 in 10.0 mi WNW 15.0 mph 20.7 mph N/A   Overcast
7:20 PM 23.0 °F 11.1 °F 19.4 °F 86% 30.13 in 10.0 mi WNW 12.7 mph 20.7 mph N/A   Overcast
7:30 PM 23.0 °F 9.2 °F 19.4 °F 86% 30.14 in 10.0 mi WNW 17.3 mph 21.9 mph N/A   Overcast
7:54 PM 21.9 °F 9.8 °F 17.1 °F 82% 30.17 in 10.0 mi NW 12.7 mph 21.9 mph N/A   Overcast
8:54 PM 21.0 °F 9.3 °F 16.0 °F 81% 30.19 in 10.0 mi NW 11.5 mph - N/A   Overcast
9:54 PM 19.0 °F 4.5 °F 14.0 °F 81% 30.21 in 10.0 mi WNW 16.1 mph 21.9 mph N/A   Mostly Cloudy
10:54 PM 19.0 °F 8.2 °F 14.0 °F 81% 30.24 in 10.0 mi NW 9.2 mph - N/A   Overcast
11:54 PM 17.1 °F 3.6 °F 12.9 °F 84% 30.28 in 10.0 mi WNW 12.7 mph 19.6 mph N/A   Overcast